星链-3779 (STARLINK-3779 )

导读

STARLINK-3779是美国太空探索技术公司SpaceX星链(Starlink)星座的成员卫星,于2022年4月21日发射入轨。星链项目旨在构建全球卫星互联网星座,为全球偏远地区、海洋航空等场景提供高速宽带网络服务。作为低轨通信卫星,STARLINK-3779运行在近地轨道,依托星链组网实现全球互联网覆盖,支撑全球泛在互联的通信需求,是星链大规模组网过程中的重要组成部分。

Basic Information
目录编号:
52281
目录名称:
STARLINK-3779
国际标识:
2022-041W
轨道中心:
EARTH
卫星名称:
星链-3779
卫星全名:
星链-3779 (STARLINK-3779 )
卫星状态:
在轨 (已飞行1597 天)
发射日期:
2022-04-21 UTC
国别 :
美国 (US)
星等 :
--
Orbit Information
数据来源 国际轨道数据
星历时间: 2026-09-02T10:52:33+0800
1天前
查看轨道信息
半长轴: 6843.37km
偏心率: 0.0000982
轨道倾角: 53.161°
近地点辐角 88.125°
升交点赤经 33.574°
平近点角 271.986°
近地点: 464.56km
远地点: 465.906km
周期: 93.900分钟
每日圈数: 15.335495
Detailed Information
固有亮度:
5
最大亮度:
2.5
卫星平台:
Starlink v1.5
覆盖范围:
全球
运营商:
太空探索技术公司
运营商所在国:
美国
制造商(研发单位):
太空探索技术公司
制造商所在国:
美国
使用方式:
暂无
Satellite Introduction
星链(Starlink)计划是由太空探索技术公司(SpaceX)提出的一个巨型低轨卫星互联网星座项目,计划在2019年至2024年间在太空搭建由约1.2万颗卫星组成的“星链”网络,其中1584颗将部署在地球上空550千米处的近地轨道,并从2020年开始工作。该卫星仍在工作。
2D Orbit Map
3D Orbit Map
Orbit Altitude Analysis Chart
Orbit Inclination Analysis Chart
Orbit Comprehensive Analysis Chart
View Comprehensive Chart
Conjunction Data List
Event ID Objects TCA Miss Dist (km) Collision Risk Probability Collision Risk Index (CRI) Action
CDM_260903-133505-228106-484322
2026-09-03T
13:35:59+0000
1.981 km
极远距离
2.250985E-6 低风险 0.42
CDM_260829-163505-017705-228122
2026-08-29T
16:35:39+0000
2.358 km
极远距离
1.649592E-6 低风险 0.39
CDM_260904-010505-228106-243621
2026-09-04T
01:05:36+0000
2.573 km
极远距离
1.47549E-6 低风险 0.38
CDM_260905-053405-228106-821121
2026-09-05T
05:34:14+0000
2.948 km
极远距离
1.218116E-6 低风险 0.37
CDM_260903-080505-228106-952621
2026-09-03T
08:05:22+0000
2.577 km
极远距离
1.137338E-6 低风险 0.36
CDM_260904-222205-185505-228121
2026-09-04T
22:22:22+0000
2.876 km
极远距离
1.079178E-6 低风险 0.36
CDM_260905-041505-228106-771321
2026-09-05T
04:15:41+0000
2.500 km
极远距离
1.064335E-6 低风险 0.36
CDM_260831-161205-228106-370821
2026-08-31T
16:12:00+0000
2.868 km
极远距离
1.019718E-6 低风险 0.35
CDM_260831-165505-228106-627021
2026-08-31T
16:55:46+0000
2.632 km
极远距离
9.190896E-7 极低风险 0.34
CDM_260905-061505-228106-003421
2026-09-05T
06:15:50+0000
2.802 km
极远距离
8.714626E-7 极低风险 0.34